COSMOS 2251 DEB, 36050

Orbit data source: Space-Track

COSMOS 2251 DEB, 36050 is space debris in LEO originally from a launch on Wed, 16 Jun 1993 UTC launched from the Plesetsk Missile And Space Complex (PKMTR). The debris from Iridium 33, an American commercial communications satellite, has been tracked extensively since its accidental collision with the defunct Russian satellite Cosmos 2251 in 2009. This event, occurring at high speed in low Earth orbit (LEO), generated thousands of pieces of space debris, significantly increasing the risk of further collisions. The Iridium 33 debris cloud has impacted space traffic management and orbital debris mitigation strategies, making it a subject of ongoing study in space situational awareness.

Loading next visibility...
Identifier
36050, 1993-036AXM
Orbit
LEO
Country
Flag of CISCIS
Related business
Manufacturer
Unknown
Mission
Spacecraft
Bus & Motor
Unknown
Mass
Unknown
Launch date (UTC)
1993-06-16 (33 years ago)
Launch vehicle
Unknown
Launch site
Plesetsk Missile And Space Complex (PKMTR)
Object type
Payload
Rocket body
Debris
Shape & HBR
Unknown shape, 0.1 m
Radar Cross Section
Small (<0.1 m²)

Expand to show TLE details & history
Last TLE update: 4 days ago

TLE from 4 days ago
0 COSMOS 2251 DEB
1 36050U 93036AXM 26070.55631438  .00011014  00000-0  76454-3 0  9991
2 36050  74.0328  12.8866 0082666  68.9807 292.0199 15.02841605683682
Epoch: 2026-03-11T13:21Z
TLE epoch observation values (Epoch: 2026-03-11T13:21:05.562Z)
Latitude
0.00003°
Longitude
3.39458°
Altitude
539.738 km
Speed
7.604 km/s
True Right ascension
00h 51m 32s
True Declination
0° 00' 00"
Sunlit
Object was in daylight at epoch
Visualization orbit readout
Latitude
Unknown
Longitude
Unknown
Altitude
Unknown
Speed
Unknown
Apparent Right ascension
Unknown
Apparent Declination
Unknown
Sunlit
N/A
Visualization observer readout
Local Sidereal Time
10:38:45
Azimuth
Unknown
Elevation
Unknown
Doppler factor
Unknown
Orbital elements
Apogee altitude
613.009 km
Perigee altitude
498.371 km
Semi-major axis
6,933.827 km
Eccentricity
0.00827
Inclination
74.0328°
RAAN
12.8866°
Arg. of periapsis
68.9807°
True anomaly
291.13834°
Mean anomaly
292.0199°
Eccentric anomaly
291.57946°
Mean motion
3.7591 °/min
Orbital period
95.77 mins
BSTAR
0.00076454
Loading maneuver chart data...
Computing Atmospheric mass density...

Documentation

Showing up to 5 results
|